Tracking 17855 objects as of 25-September-2016
HD Live streaming from Space Station
objects crossing your sky now

DMSP 5D-2 F11 DEB

Track DMSP 5D-2 F11 DEB now!
10-day predictions


NORAD ID: 29070
Int'l Code: 1991-082BR
Perigee: 785.8 km
Apogee: 805.3 km
Inclination: 98.8 °
Period: 100.6 minutes
Semi major axis: 7166 km
RCS: 0.0089 m2 (small)
Launch date: November 28, 1991
Source: United States (US)
Launch site: AIR FORCE WESTERN TEST RANGE (AFWTR)

Note: This is SATELLITE DEBRIS
Your satellite tracking list
Your tracking list is empty





NASA's NSSDC Master Catalog

Two Line Element Set (TLE):
1 29070U 91082BR  16266.97723714 +.00001385 +00000-0 +54346-3 0  9991
2 29070 098.7948 278.8099 0013651 212.4947 147.5396 14.30989421620502
Source of the keplerian elements: AFSPC

N2YO: 527